This demonstration page uses our WeatherBlox Daily Observations layout. Learn more.

Left ArrowRight Arrow

30.21309, -93.2044

Hourly Observations for January 15, 2022

Temp ( °F °C ) Dew Point ( °F °C ) Humidity (%) Winds ( mph kmh ) Pressure ( in mb ) Visibility ( mi km ) Precip ( " mm )
12:15 am 00:15 Cloudy 52 11.1 49 9.2 88 88 SE 5 7 29.87 1012 10 16 0.00 0.00
12:35 am 00:35 Cloudy 54 12.1 50 10.2 88 88 SE 5 7 29.86 1011 10 16 0.00 0.00
12:55 am 00:55 Cloudy 53 11.8 50 10.1 89 89 SE 6 9 29.86 1011 10 16 0.00 0.00
1:15 am 01:15 Mostly Cloudy 53 11.5 50 10 91 91 ESE 3 6 29.86 1011 10 16 0.00 0.00
1:35 am 01:35 Partly Cloudy 53 11.4 50 10.2 92 92 SSE 7 11 29.85 1011 10 16 0.00 0.00
1:55 am 01:55 Partly Cloudy 54 12 51 10.8 92 92 SSE 8 13 29.85 1011 10 16 0.00 0.00
2:15 am 02:15 Clear 54 12.3 52 11 92 92 SSE 8 13 29.85 1011 10 16 0.00 0.00
2:35 am 02:35 Clear 54 12.3 52 11.2 93 93 SSE 9 15 29.84 1010 10 16 0.00 0.00
2:55 am 02:55 Clear 56 13.5 54 12.2 92 92 SSE 7 11 29.83 1010 10 16 0.00 0.00
3:15 am 03:15 Partly Cloudy 56 13.2 53 11.8 91 91 SSE 8 13 29.83 1010 10 16 0.00 0.00
3:35 am 03:35 Mostly Cloudy 56 13.6 54 12.4 93 93 SSE 8 13 29.83 1010 10 16 0.00 0.00
3:55 am 03:55 Mostly Cloudy 56 13.5 54 12.2 92 92 SSE 7 11 29.82 1010 10 16 0.00 0.00
4:15 am 04:15 Partly Cloudy 56 13.4 54 12.2 93 93 SSE 5 7 29.82 1010 10 16 0.00 0.00
4:35 am 04:35 Mostly Cloudy 56 13.5 54 12.3 93 93 Calm 29.83 1010 10 16 0.00 0.00
4:55 am 04:55 Mostly Cloudy 58 14.2 55 12.8 91 91 S 6 9 29.83 1010 10 16 0.00 0.00
5:15 am 05:15 Mostly Cloudy 57 14.1 55 12.8 92 92 Calm 29.83 1010 10 16 0.00 0.00
5:35 am 05:35 Mostly Cloudy 58 14.2 55 12.8 91 91 Calm 29.84 1010 10 16 0.00 0.00
6:00 am 06:00 Mostly Cloudy 57 14 55 13 94 94 Calm 29.84 1010 10 16 0.00 0.00
6:55 am 06:55 Mostly Cloudy 57 14 55 13 94 94 Calm 29.83 1010 10 16 0.00 0.00
7:48 am 07:48 Mostly Cloudy 63 17 57 14 83 83 W 9 15 29.85 1011 10 16 0.00 0.00
8:55 am 08:55 Mostly Cloudy 59 15 54 12 82 82 WNW 21 33 29.86 1011 10 16 0.00 0.00
9:50 am 09:50 Partly Cloudy 55 13 41 5 59 59 NW 18 30 29.91 1013 10 16 0.00 0.00
10:55 am 10:55 Cloudy 52 11 37 3 58 58 NNW 21 33 29.93 1014 10 16 0.00 0.00
11:48 am 11:48 Mostly Sunny 52 11 37 3 58 58 NW 21 33 29.92 1013 10 16 0.00 0.00
12:51 pm 12:51 Partly Cloudy 52 11 36 2 54 54 NNW 23 37 29.92 1013 10 16 0.00 0.00
1:48 pm 13:48 Mostly Cloudy 52 11 36 2 54 54 NNW 17 28 29.90 1013 10 16 0.00 0.00
2:45 pm 14:45 Partly Cloudy 48 9 30 -1 50 50 NW 23 37 29.91 1013 10 16 0.00 0.00
3:45 pm 15:45 Partly Cloudy 48 9 30 -1 50 50 NNW 29 46 29.94 1014 10 16 0.00 0.00
4:45 pm 16:45 Mostly Sunny 46 8 28 -2 50 50 N 23 37 29.95 1014 10 16 0.00 0.00
5:45 pm 17:45 Mostly Clear 43 6 25 -4 49 49 NNW 22 35 29.98 1015 10 16 0.00 0.00
6:55 pm 18:55 Cloudy 41 5 21 -6 45 45 N 29 46 30.01 1016 10 16 0.00 0.00
7:45 pm 19:45 Cloudy 41 5 21 -6 45 45 NW 23 37 30.02 1017 10 16 0.00 0.00
8:45 pm 20:45 Mostly Cloudy 39 4 19 -7 45 45 NW 24 39 30.04 1017 10 16 0.00 0.00
9:45 pm 21:45 Cloudy 37 3 21 -6 52 52 NW 24 39 30.04 1017 10 16 0.00 0.00
10:15 pm 22:15 Mostly Cloudy 37 2.7 20 -6.5 51 51 WNW 20 31 30.05 1018 10 16 0.00 0.00
10:35 pm 22:35 Cloudy 36 2.3 20 -6.6 52 52 WNW 22 35 30.05 1018 10 16 0.00 0.00
10:55 pm 22:55 Cloudy 36 2.2 20 -6.6 53 53 WNW 22 35 30.05 1018 10 16 0.00 0.00
11:15 pm 23:15 Partly Cloudy 35 1.7 20 -6.6 54 54 WNW 23 37 30.05 1018 10 16 0.00 0.00
11:35 pm 23:35 Clear 34 1.3 20 -6.8 55 55 NW 15 24 30.05 1018 10 16 0.00 0.00
11:55 pm 23:55 Partly Cloudy 34 1 19 -7 56 56 WNW 16 26 30.05 1018 10 16 0.00 0.00

Powered by AerisWeather